GW3329 Weather Reports


Display with metric or nautical units.
time (UTC)temp
F
wind
direction
speed
MPH
gust
MPH
rain 1hr
in
rain 24hr
in
rain mn
in
humidity
%
barometer
mb
20260507183932 78 158 0.0 2.0 0.00 0.00 0.00 53 1019.7
20260507183428 77 54 1.0 3.0 0.00 0.00 0.00 55 1019.8
20260507182925 76 209 2.0 6.0 0.00 0.00 0.00 54 1019.8
20260507182421 75 190 2.0 4.0 0.00 0.00 0.00 56 1019.7
20260507181917 75 266 3.0 4.0 0.00 0.00 0.00 55 1019.7
20260507181414 76 170 0.0 1.0 0.00 0.00 0.00 55 1019.7
20260507180910 75 213 2.0 4.0 0.00 0.00 0.00 56 1019.9
20260507180407 74 143 2.0 3.0 0.00 0.00 0.00 58 1019.8
20260507175903 74 327 2.0 3.0 0.00 0.00 0.00 58 1019.6
20260507175400 75 254 3.0 6.0 0.00 0.00 0.00 58 1019.9
20260507174858 74 46 1.0 4.0 0.00 0.00 0.00 58 1019.9
20260507174355 73 102 0.0 2.0 0.00 0.00 0.00 59 1020.0
20260507173852 73 282 2.0 4.0 0.00 0.00 0.00 59 1019.9
20260507173349 73 155 1.0 4.0 0.00 0.00 0.00 58 1019.9
20260507172845 74 354 1.0 4.0 0.00 0.00 0.00 57 1019.9
20260507172342 75 151 1.0 3.0 0.00 0.00 0.00 56 1019.7
20260507171838 74 256 2.0 7.0 0.00 0.00 0.00 57 1019.8
20260507171335 73 131 0.0 3.0 0.00 0.00 0.00 59 1020.1
20260507170832 71 192 2.0 3.0 0.00 0.00 0.00 61 1020.0
20260507170329 71 180 0.0 3.0 0.00 0.00 0.00 62 1019.9
20260507165824 70 183 1.0 3.0 0.00 0.00 0.00 64 1020.0
20260507165321 70 255 2.0 3.0 0.00 0.00 0.00 63 1020.2
20260507164817 70 194 2.0 3.0 0.00 0.00 0.00 64 1020.0
20260507164314 70 236 1.0 2.0 0.00 0.00 0.00 64 1020.2
20260507163811 70 216 1.0 3.0 0.00 0.00 0.00 63 1019.9
20260507163309 69 56 2.0 4.0 0.00 0.00 0.00 65 1020.2
20260507162805 69 223 2.0 3.0 0.00 0.00 0.00 65 1020.3
20260507162301 68 143 0.0 3.0 0.00 0.00 0.00 66 1020.2
20260507161758 68 67 1.0 2.0 0.00 0.00 0.00 66 1020.1
20260507161254 68 183 2.0 3.0 0.00 0.00 0.00 67 1020.2
20260507160750 69 266 2.0 3.0 0.00 0.00 0.00 65 1020.2
20260507160247 67 176 0.0 2.0 0.00 0.00 0.00 68 1020.3
20260507155743 68 138 0.0 2.0 0.00 0.00 0.00 66 1020.1
20260507155239 68 306 2.0 2.0 0.00 0.00 0.00 66 1020.1
20260507154736 67 137 0.0 0.0 0.00 0.00 0.00 68 1020.2
20260507154233 66 136 0.0 2.0 0.00 0.00 0.00 69 1020.4
20260507153730 65 219 1.0 3.0 0.00 0.00 0.00 72 1020.2
20260507153226 65 226 1.0 2.0 0.00 0.00 0.00 71 1020.2
20260507152723 64 147 0.0 1.0 0.00 0.00 0.00 73 1020.1
20260507152219 63 221 1.0 3.0 0.00 0.00 0.00 74 1020.3
20260507151715 62 230 1.0 3.0 0.00 0.00 0.00 75 1020.3
20260507151212 64 254 2.0 3.0 0.00 0.00 0.00 73 1020.2
20260507150709 64 39 0.0 0.0 0.00 0.00 0.00 72 1020.6
20260507150206 64 86 0.0 0.0 0.00 0.00 0.00 73 1020.3
20260507145701 64 119 0.0 0.0 0.00 0.00 0.00 73 1020.2
20260507145158 63 143 0.0 0.0 0.00 0.00 0.00 75 1020.3
20260507144655 62 131 0.0 0.0 0.00 0.00 0.00 77 1020.5
20260507144153 61 137 0.0 0.0 0.00 0.00 0.00 77 1020.3
20260507143649 61 129 0.0 0.0 0.00 0.00 0.00 77 1020.5
20260507143147 60 141 0.0 0.0 0.00 0.00 0.00 80 1020.3
20260507142642 59 153 0.0 0.0 0.00 0.00 0.00 81 1020.4
20260507142139 58 122 0.0 0.0 0.00 0.00 0.00 82 1020.3
20260507141635 57 122 0.0 0.0 0.00 0.00 0.00 84 1020.1
20260507141132 56 138 0.0 0.0 0.00 0.00 0.00 86 1020.0
20260507140628 56 189 0.0 0.0 0.00 0.00 0.00 86 1020.3
20260507140126 56 192 0.0 0.0 0.00 0.00 0.00 86 1020.0
20260507135623 55 196 0.0 0.0 0.00 0.00 0.00 89 1020.1
20260507135120 55 198 0.0 0.0 0.00 0.00 0.00 89 1019.9
20260507134616 54 198 0.0 0.0 0.00 0.00 0.00 90 1019.8
20260507134113 53 199 0.0 0.0 0.00 0.00 0.00 92 1019.8
20260507133609 53 199 0.0 0.0 0.00 0.00 0.00 92 1019.9
20260507133107 52 199 0.0 0.0 0.00 0.00 0.00 92 1019.8
20260507132603 52 199 0.0 0.0 0.00 0.00 0.00 92 1019.8
20260507132059 52 199 0.0 0.0 0.00 0.00 0.00 92 1019.6
20260507131556 53 199 0.0 0.0 0.00 0.00 0.00 92 1019.8
20260507131054 52 199 0.0 0.0 0.00 0.00 0.00 93 1019.7
20260507130550 52 199 0.0 0.0 0.00 0.00 0.00 93 1019.8
20260507130049 52 199 0.0 0.0 0.00 0.00 0.00 93 1019.6
20260507125547 52 199 0.0 0.0 0.00 0.00 0.00 93 1019.4
20260507125044 52 199 0.0 0.0 0.00 0.00 0.00 93 1019.3
20260507124540 52 199 0.0 0.0 0.00 0.00 0.00 93 1019.4
20260507124038 51 199 0.0 0.0 0.00 0.00 0.00 93 1019.4
20260507123536 51 199 0.0 0.0 0.00 0.00 0.00 93 1019.3
20260507123033 51 199 0.0 0.0 0.00 0.00 0.00 93 1019.7
20260507122528 52 199 0.0 0.0 0.00 0.00 0.00 92 1019.4
20260507122024 52 199 0.0 0.0 0.00 0.00 0.00 92 1019.6
20260507121520 52 199 0.0 0.0 0.00 0.00 0.00 92 1019.6
20260507121016 53 199 0.0 0.0 0.00 0.00 0.00 92 1019.4
20260507120512 53 199 0.0 0.0 0.00 0.00 0.00 92 1019.6
20260507120009 52 199 0.0 0.0 0.00 0.00 0.00 93 1019.4
20260507115505 52 199 0.0 0.0 0.00 0.00 0.00 92 1019.4
20260507115001 52 199 0.0 0.0 0.00 0.00 0.00 92 1019.4
20260507114457 52 199 0.0 0.0 0.00 0.00 0.00 91 1019.4
20260507113955 53 199 0.0 0.0 0.00 0.00 0.00 91 1019.3
20260507113452 53 199 0.0 0.0 0.00 0.00 0.00 91 1019.6
20260507112949 53 199 0.0 0.0 0.00 0.00 0.00 91 1019.7
20260507112447 53 199 0.0 0.0 0.00 0.00 0.00 91 1019.7
20260507111943 53 199 0.0 0.0 0.00 0.00 0.00 91 1019.7
20260507111441 53 199 0.0 0.0 0.00 0.00 0.00 91 1019.6
20260507110937 53 199 0.0 0.0 0.00 0.00 0.00 90 1019.7
20260507110433 53 199 0.0 0.0 0.00 0.00 0.00 90 1019.8
20260507105930 54 199 0.0 0.0 0.00 0.00 0.00 90 1020.0
20260507105427 54 198 0.0 0.0 0.00 0.00 0.00 90 1019.8
20260507104923 53 199 0.0 0.0 0.00 0.00 0.00 90 1019.9
20260507104420 53 199 0.0 0.0 0.00 0.00 0.00 90 1019.8
20260507103916 53 199 0.0 0.0 0.00 0.00 0.00 91 1019.8
20260507103413 53 199 0.0 0.0 0.00 0.00 0.00 90 1020.1
20260507102909 53 199 0.0 0.0 0.00 0.00 0.00 90 1020.0
20260507102406 53 199 0.0 0.0 0.00 0.00 0.00 90 1019.8
20260507101902 53 199 0.0 0.0 0.00 0.00 0.00 89 1020.0
20260507101357 54 199 0.0 0.0 0.00 0.00 0.00 89 1019.9
20260507100854 54 198 0.0 0.0 0.00 0.00 0.00 89 1019.8
20260507100352 54 198 0.0 0.0 0.00 0.00 0.00 90 1019.8
20260507095850 54 198 0.0 0.0 0.00 0.00 0.00 90 1019.9
20260507095346 53 198 0.0 0.0 0.00 0.00 0.00 90 1020.1
20260507094843 54 198 0.0 0.0 0.00 0.00 0.00 90 1020.1
20260507094339 54 198 0.0 0.0 0.00 0.00 0.00 90 1020.0
20260507093837 53 199 0.0 0.0 0.00 0.00 0.00 89 1020.0
20260507093335 54 199 0.0 0.0 0.00 0.00 0.00 89 1020.0
20260507092833 54 199 0.0 0.0 0.00 0.00 0.00 89 1020.2
20260507092329 55 199 0.0 0.0 0.00 0.00 0.00 88 1020.3
20260507091825 55 199 0.0 0.0 0.00 0.00 0.00 87 1020.1
20260507091322 55 199 0.0 0.0 0.00 0.00 0.00 88 1020.3
20260507090818 54 205 0.0 0.0 0.00 0.00 0.00 90 1020.3
20260507090314 54 197 0.0 0.0 0.00 0.00 0.00 90 1020.2
20260507085811 54 197 0.0 0.0 0.00 0.00 0.00 90 1020.5
20260507085308 54 197 0.0 0.0 0.00 0.00 0.00 89 1020.4
20260507084806 54 197 0.0 0.0 0.00 0.00 0.00 89 1020.5
20260507084301 54 197 0.0 0.0 0.00 0.00 0.00 89 1020.6
20260507083759 55 197 0.0 0.0 0.00 0.00 0.00 89 1020.5
20260507083255 54 197 0.0 0.0 0.00 0.00 0.00 89 1020.6
20260507082751 54 197 0.0 0.0 0.00 0.00 0.00 89 1020.7
20260507082247 55 197 0.0 0.0 0.00 0.00 0.00 89 1020.7
20260507081744 55 197 0.0 0.0 0.00 0.00 0.00 89 1020.6
20260507081240 55 197 0.0 0.0 0.00 0.00 0.00 89 1020.8
20260507080737 54 197 0.0 0.0 0.00 0.00 0.00 90 1020.9
20260507080233 54 197 0.0 0.0 0.00 0.00 0.00 91 1020.8
20260507075729 54 198 0.0 0.0 0.00 0.00 0.00 90 1020.6
20260507075225 54 198 0.0 0.0 0.00 0.00 0.00 91 1020.8
20260507074722 55 198 0.0 0.0 0.00 0.00 0.00 91 1020.8
20260507074220 54 198 0.0 0.0 0.00 0.00 0.00 92 1020.8
20260507073716 54 201 0.0 0.0 0.00 0.00 0.00 94 1020.8
20260507073213 53 202 0.0 0.0 0.00 0.00 0.00 94 1020.8
20260507072711 54 203 0.0 0.0 0.00 0.00 0.00 94 1020.9
20260507072208 54 203 0.0 0.0 0.00 0.00 0.00 94 1020.9
20260507071705 54 203 0.0 0.0 0.00 0.00 0.00 94 1020.9
20260507071202 54 203 0.0 0.0 0.00 0.00 0.00 93 1021.1
20260507070659 53 203 0.0 0.0 0.00 0.00 0.00 93 1021.2
20260507070155 54 203 0.0 0.0 0.00 0.00 0.00 93 1021.0
20260507065652 54 203 0.0 0.0 0.00 0.00 0.00 92 1021.1
20260507065149 54 203 0.0 0.0 0.00 0.00 0.00 92 1020.9
20260507064646 55 203 0.0 0.0 0.00 0.00 0.00 92 1021.1
20260507064145 55 203 0.0 0.0 0.00 0.00 0.00 92 1021.1
20260507063642 55 204 0.0 0.0 0.00 0.00 0.00 92 1021.1
20260507063139 55 205 0.0 0.0 0.00 0.00 0.00 92 1021.1
20260507062635 55 205 0.0 0.0 0.00 0.00 0.00 92 1021.1
20260507062133 55 205 0.0 0.0 0.00 0.00 0.00 92 1021.1
20260507061631 55 205 0.0 0.0 0.00 0.00 0.00 91 1021.1
20260507061129 55 206 0.0 0.0 0.00 0.00 0.00 91 1021.2
20260507060627 55 206 0.0 0.0 0.00 0.00 0.00 91 1021.3
20260507060123 55 206 0.0 0.0 0.00 0.00 0.00 90 1021.1
20260507055618 55 206 0.0 0.0 0.00 0.00 0.00 90 1021.2
20260507055114 55 206 0.0 0.0 0.00 0.00 0.00 90 1021.2
20260507054610 55 207 0.0 0.0 0.00 0.00 0.00 89 1021.2
20260507054108 56 207 0.0 0.0 0.00 0.00 0.00 89 1021.0
20260507053605 56 208 0.0 0.0 0.00 0.00 0.00 88 1021.1
20260507053104 56 211 0.0 0.0 0.00 0.00 0.00 87 1021.0
20260507052602 56 225 0.0 0.0 0.00 0.00 0.00 88 1021.0
20260507052058 56 226 0.0 0.0 0.00 0.00 0.00 87 1020.9
20260507051555 57 226 0.0 0.0 0.00 0.00 0.00 87 1021.0
20260507051052 57 227 0.0 0.0 0.00 0.00 0.00 87 1020.9
20260507050549 56 228 0.0 0.0 0.00 0.00 0.00 87 1020.9
20260507050045 57 228 0.0 0.0 0.00 0.00 0.00 87 1021.0
20260507045542 57 228 0.0 0.0 0.00 0.00 0.00 87 1020.9
20260507045039 57 229 0.0 0.0 0.00 0.00 0.00 86 1020.9
20260507044536 57 229 0.0 0.0 0.00 0.00 0.00 87 1021.0
20260507044033 57 229 0.0 0.0 0.00 0.00 0.00 87 1021.1
20260507043528 57 229 0.0 0.0 0.00 0.00 0.00 86 1020.9
20260507043026 57 229 0.0 0.0 0.00 0.00 0.00 86 1021.0
20260507042522 57 229 0.0 0.0 0.00 0.00 0.00 85 1020.8
20260507042017 57 229 0.0 0.0 0.00 0.00 0.00 85 1020.8
20260507041515 57 229 0.0 0.0 0.00 0.00 0.00 85 1020.9
20260507041012 57 229 0.0 0.0 0.00 0.00 0.00 84 1020.8
20260507040508 58 229 0.0 0.0 0.00 0.00 0.00 83 1020.9
20260507040004 58 230 0.0 0.0 0.00 0.00 0.00 83 1020.7
20260507035500 59 230 0.0 0.0 0.00 0.00 0.00 81 1020.7
20260507034956 59 237 0.0 0.0 0.00 0.00 0.00 82 1020.5
20260507034454 58 225 0.0 0.0 0.00 0.00 0.00 83 1020.7
20260507033952 58 191 0.0 0.0 0.00 0.00 0.00 83 1020.8
20260507033449 58 183 0.0 0.0 0.00 0.00 0.00 82 1020.6
20260507032946 58 180 0.0 0.0 0.00 0.00 0.00 81 1020.8
20260507032443 59 193 0.0 0.0 0.00 0.00 0.00 81 1020.3
20260507031939 59 177 0.0 0.0 0.00 0.00 0.00 80 1020.4
20260507031436 59 177 0.0 0.0 0.00 0.00 0.00 78 1020.6
20260507030933 59 177 0.0 0.0 0.00 0.00 0.00 78 1020.4
20260507030430 59 169 0.0 0.0 0.00 0.00 0.00 77 1020.3
20260507025927 60 170 0.0 0.0 0.00 0.00 0.00 76 1020.0
20260507025424 60 164 0.0 0.0 0.00 0.00 0.00 76 1020.2
20260507024922 60 156 0.0 0.0 0.00 0.00 0.00 75 1019.9
20260507024419 61 159 0.0 0.0 0.00 0.00 0.00 74 1020.1
20260507023915 61 168 0.0 0.0 0.00 0.00 0.00 73 1019.9
20260507023412 62 142 0.0 0.0 0.00 0.00 0.00 73 1020.0
20260507022909 62 143 0.0 0.0 0.00 0.00 0.00 72 1020.0
20260507022406 62 143 0.0 0.0 0.00 0.00 0.00 71 1020.0
20260507021901 62 162 0.0 0.0 0.00 0.00 0.00 71 1019.8
20260507021357 63 169 0.0 1.0 0.00 0.00 0.00 70 1020.0
20260507020855 63 175 1.0 2.0 0.00 0.00 0.00 69 1019.9
20260507020351 63 162 0.0 3.0 0.00 0.00 0.00 68 1019.8
20260507015848 63 142 0.0 2.0 0.00 0.00 0.00 68 1019.9
20260507015346 64 167 0.0 1.0 0.00 0.00 0.00 67 1019.8
20260507014844 64 171 0.0 3.0 0.00 0.00 0.00 67 1019.7
20260507014339 64 290 2.0 4.0 0.00 0.00 0.00 68 1020.0
20260507013836 66 263 3.0 3.0 0.00 0.00 0.00 65 1019.7
20260507013333 66 244 1.0 3.0 0.00 0.00 0.00 65 1019.8
20260507012831 66 42 1.0 4.0 0.00 0.00 0.00 64 1019.9
20260507012326 66 267 2.0 4.0 0.00 0.00 0.00 62 1019.9
20260507011824 67 162 0.0 1.0 0.00 0.00 0.00 61 1019.8
20260507011320 67 102 0.0 2.0 0.00 0.00 0.00 61 1019.7
20260507010820 67 171 0.0 3.0 0.00 0.00 0.00 60 1019.4
20260507010316 67 78 1.0 7.0 0.00 0.00 0.00 61 1019.7
20260507005813 68 55 0.0 4.0 0.00 0.00 0.00 62 1019.9
20260507005309 68 132 0.0 6.0 0.00 0.00 0.00 60 1019.9
20260507004801 68 356 1.0 2.0 0.00 0.00 0.00 60 1019.6
20260507004258 68 222 2.0 4.0 0.00 0.00 0.00 60 1019.7
20260507003754 68 176 0.0 4.0 0.00 0.00 0.00 60 1019.8
20260507003250 69 168 2.0 3.0 0.00 0.00 0.00 59 1019.8
20260507002746 68 266 3.0 4.0 0.00 0.00 0.00 60 1019.7
20260507002242 69 296 1.0 7.0 0.00 0.00 0.00 60 1019.9
20260507001739 69 189 1.0 4.0 0.00 0.00 0.00 59 1019.6
20260507001237 70 189 1.0 6.0 0.00 0.00 0.00 59 1019.9
20260507000733 69 83 1.0 3.0 0.00 0.00 0.00 60 1019.6
20260507000228 70 205 1.0 3.0 0.00 0.00 0.00 57 1019.7
20260506235725 69 94 1.0 3.0 0.00 0.00 0.00 61 1019.3
20260506235221 70 199 3.0 8.0 0.00 0.00 0.00 59 1019.4
20260506234718 69 173 2.0 3.0 0.00 0.00 0.00 61 1019.3
20260506234215 70 179 3.0 4.0 0.00 0.00 0.00 59 1019.8
20260506233713 70 192 2.0 3.0 0.00 0.00 0.00 58 1019.6
20260506233209 69 155 2.0 6.0 0.00 0.00 0.00 61 1019.8
20260506232707 70 331 2.0 4.0 0.00 0.00 0.00 59 1019.6
20260506232200 69 215 2.0 7.0 0.00 0.00 0.00 59 1019.8
20260506231658 70 227 4.0 7.0 0.00 0.00 0.00 59 1019.8
20260506231157 71 169 1.0 4.0 0.00 0.00 0.00 57 1019.9
20260506230653 71 244 4.0 7.0 0.00 0.00 0.00 58 1019.9
20260506230150 71 290 2.0 6.0 0.00 0.00 0.00 58 1019.8
20260506225646 71 158 1.0 4.0 0.00 0.00 0.00 58 1020.0
20260506225143 71 238 3.0 4.0 0.00 0.00 0.00 57 1019.7
20260506224639 71 186 4.0 7.0 0.00 0.00 0.00 58 1020.0
20260506224136 71 250 2.0 4.0 0.00 0.00 0.00 57 1020.0
20260506223633 71 287 2.0 6.0 0.00 0.00 0.00 58 1020.2
20260506223128 71 50 0.0 6.0 0.00 0.00 0.00 58 1020.1
20260506222626 72 177 0.0 4.0 0.00 0.00 0.00 58 1020.2
20260506222122 72 199 2.0 7.0 0.00 0.00 0.00 57 1020.2
20260506221620 72 205 2.0 7.0 0.00 0.00 0.00 58 1020.1
20260506221118 71 116 1.0 4.0 0.00 0.00 0.00 59 1020.4
20260506220614 71 295 5.0 6.0 0.00 0.00 0.00 57 1020.5
20260506220109 71 31 2.0 3.0 0.00 0.00 0.00 57 1020.7
20260506215606 71 257 1.0 6.0 0.00 0.00 0.00 58 1020.7
20260506215102 72 289 1.0 3.0 0.00 0.00 0.00 56 1020.7
20260506214559 72 237 1.0 4.0 0.00 0.00 0.00 55 1020.6
20260506214056 72 191 1.0 7.0 0.00 0.00 0.00 55 1020.8
20260506213554 71 172 0.0 4.0 0.00 0.00 0.00 56 1020.7
20260506213051 71 336 1.0 2.0 0.00 0.00 0.00 54 1020.7
20260506212548 72 344 1.0 7.0 0.00 0.00 0.00 53 1020.7
20260506212043 72 159 1.0 7.0 0.00 0.00 0.00 55 1021.0
20260506211539 71 250 4.0 8.0 0.00 0.00 0.00 56 1020.6
20260506211036 71 60 0.0 3.0 0.00 0.00 0.00 57 1020.9
20260506210533 71 285 4.0 7.0 0.00 0.00 0.00 59 1021.0
20260506210029 71 170 2.0 6.0 0.00 0.00 0.00 60 1021.0
20260506205526 71 21 3.0 8.0 0.00 0.00 0.00 60 1020.9
20260506205021 71 221 2.0 4.0 0.00 0.00 0.00 59 1020.7
20260506204520 70 294 2.0 8.0 0.00 0.00 0.00 61 1021.0
20260506204016 70 293 6.0 11.0 0.00 0.00 0.00 61 1021.0
20260506203515 71 317 3.0 4.0 0.00 0.00 0.00 60 1021.1
20260506203010 71 117 0.0 4.0 0.00 0.00 0.00 61 1021.3
20260506202508 71 246 2.0 8.0 0.00 0.00 0.00 60 1021.2
20260506202004 71 29 1.0 8.0 0.00 0.00 0.00 60 1021.3
20260506201502 71 269 2.0 8.0 0.00 0.00 0.00 60 1021.0
20260506200958 72 136 2.0 9.0 0.00 0.00 0.00 60 1021.1
20260506200455 72 331 2.0 3.0 0.00 0.00 0.00 58 1021.1
20260506195951 71 164 0.0 6.0 0.00 0.00 0.00 61 1021.1
20260506195449 71 172 1.0 7.0 0.00 0.00 0.00 61 1021.5
20260506194945 70 254 2.0 7.0 0.00 0.00 0.00 61 1021.4
20260506194442 72 294 4.0 11.0 0.00 0.00 0.00 59 1021.2
20260506193939 72 284 4.0 9.0 0.00 0.00 0.00 59 1021.3
20260506193436 73 199 1.0 3.0 0.00 0.00 0.00 56 1021.2
20260506192932 73 153 0.0 1.0 0.00 0.00 0.00 55 1021.4
20260506192429 73 91 2.0 4.0 0.00 0.00 0.00 55 1021.6
20260506191926 71 161 2.0 6.0 0.00 0.00 0.00 55 1021.4
20260506191423 73 145 0.0 2.0 0.00 0.00 0.00 53 1021.6
20260506190920 71 133 1.0 4.0 0.00 0.00 0.00 55 1021.5
20260506190416 71 250 2.0 6.0 0.00 0.00 0.00 54 1021.6
20260506185913 71 64 0.0 4.0 0.00 0.00 0.00 54 1021.6
20260506185410 71 263 6.0 7.0 0.00 0.00 0.00 52 1021.7
20260506184907 70 226 1.0 3.0 0.00 0.00 0.00 54 1021.8
20260506184404 70 32 0.0 3.0 0.00 0.00 0.00 55 1021.9